This is the latest recevied weather packets stored in our database for station/object K8JMX-13. If no packets are shown the sender has not sent any weather packets the latest 10 day(s).
| Time | Temp. | Humidity | Pressure | Rain* | Wind** | Luminosity | Snow |
|---|---|---|---|---|---|---|---|
| 1777827028 | 15° C | 39% | 1016.2 hPa | 0 mm | - | 401 W/m² | - |
| 1777826726 | 13.89° C | 38% | 1016.1 hPa | 0 mm | - | 813 W/m² | - |
| 1777826422 | 13.89° C | 39% | 1016.2 hPa | 0 mm | - | 134 W/m² | - |
| 1777826114 | 13.89° C | 39% | 1016.3 hPa | 0 mm | - | 706 W/m² | - |
| 1777825811 | 14.44° C | 39% | 1016.5 hPa | 0 mm | - | 476 W/m² | - |
| 1777825508 | 14.44° C | 39% | 1016.5 hPa | 0 mm | - | 107 W/m² | - |
| 1777825206 | 13.89° C | 39% | 1016.6 hPa | 0 mm | - | 745 W/m² | - |
| 1777824902 | 13.89° C | 42% | 1016.5 hPa | 0 mm | - | 209 W/m² | - |
| 1777824598 | 13.89° C | 43% | 1016.6 hPa | 0 mm | - | 126 W/m² | - |
| 1777824290 | 13.89° C | 44% | 1016.8 hPa | 0 mm | - | 91 W/m² | - |
| 1777823990 | 13.33° C | 43% | 1016.8 hPa | 0 mm | - | 86 W/m² | - |
| 1777823688 | 13.33° C | 44% | 1016.7 hPa | 0 mm | - | 65 W/m² | - |
| 1777823384 | 13.33° C | 45% | 1016.8 hPa | 0 mm | - | 72 W/m² | - |
| 1777823082 | 13.33° C | 42% | 1017 hPa | 0 mm | - | 58 W/m² | - |
| 1777822780 | 13.33° C | 44% | 1017 hPa | 0 mm | - | 124 W/m² | - |
| 1777822478 | 12.78° C | 44% | 1017 hPa | 0 mm | - | 56 W/m² | - |
| 1777822175 | 12.22° C | 44% | 1017.3 hPa | 0 mm | - | 56 W/m² | - |
| 1777821872 | 12.78° C | 44% | 1017.1 hPa | 0 mm | - | 193 W/m² | - |
| 1777821570 | 12.22° C | 47% | 1017 hPa | 0 mm | - | 467 W/m² | - |
| 1777821267 | 12.78° C | 42% | 1017.1 hPa | 0 mm | - | 310 W/m² | - |
| 1777820964 | 11.67° C | 44% | 1017 hPa | 0 mm | - | 64 W/m² | - |
| 1777820661 | 11.67° C | 43% | 1017 hPa | 0 mm | - | 54 W/m² | - |
| 1777820357 | 11.67° C | 44% | 1017.1 hPa | 0 mm | - | 179 W/m² | - |
| 1777820055 | 11.67° C | 44% | 1017.3 hPa | 0 mm | - | 63 W/m² | - |
| 1777819751 | 11.11° C | 46% | 1017 hPa | 0 mm | - | 62 W/m² | - |
* Rain latest hour (hover to see other rain measurements)
** Current wind speed in m/s (hover to see current wind gust speed)